Regional Weather Roundup
Issued by NWS

Home | Current Version | Previous Version | Graphics & Text | Print | Product List | Glossary On
Versions: 1 2 3 4 5 6 7 8 9 10 11 12 13 14 15 16 17 18 19 20 21 22 23 24 25 26 27 28 29 30 31 32 33 34 35 36 37 38 39 40 41 42 43 44 45 46 47 48 49 50
000
ASUS43 KMKX 200611
RWRWI

WISCONSIN REGIONAL WEATHER ROUNDUP
NATIONAL WEATHER SERVICE MILWAUKEE/SULLIVAN WI
100 AM CDT SUN APR 20 2014

NOTE: "FAIR" INDICATES FEW OR NO CLOUDS BELOW 12,000 FEET WITH NO
SIGNIFICANT WEATHER AND/OR OBSTRUCTIONS TO VISIBILITY.

WIZ001-002-006>008-014>016-023>028-200700-
NORTHWEST WISCONSIN

CITY           SKY/WX    TMP DP  RH WIND       PRES   REMARKS
SUPERIOR ARPT  FAIR      28  27  98 CALM      30.03S FOG
6HR MIN TEMP:  28; 6HR MAX TEMP:  35;

ASHLAND        FAIR      43  41  93 SW6       30.02S
6HR MIN TEMP:  37; 6HR MAX TEMP:  46;

HAYWARD        CLOUDY    40  38  93 CALM      30.02S
6HR MIN TEMP:  40; 6HR MAX TEMP:  51;

SIREN          MOCLDY    37  36  94 CALM      30.01S
6HR MIN TEMP:  37; 6HR MAX TEMP:  54;

RICE LAKE      LGT RAIN  47  46  93 CALM      30.04F VSB 1/2
6HR MIN TEMP:  47; 6HR MAX TEMP:  52; 6HR PCP:  0.17;

LADYSMITH      LGT RAIN  51  46  85 SE6       30.05S
6HR MIN TEMP:  51; 6HR MAX TEMP:  53; 6HR PCP:  0.06;

EAU CLAIRE     CLOUDY    57  42  57 CALM      30.02S
6HR MIN TEMP:  57; 6HR MAX TEMP:  64; 6HR PCP: TRACE;

MENOMONIE      CLOUDY    56  45  65 NW5       30.02S
6HR MIN TEMP:  55; 6HR MAX TEMP:  62;

NEW RICHMOND   HVY RAIN  51  51 100 CALM      30.03R
6HR MIN TEMP:  50; 6HR MAX TEMP:  57; 6HR PCP:  0.26;

OSCEOLA        CLOUDY    49  49 100 SE3       30.04R FOG
6HR MIN TEMP:  49; 6HR MAX TEMP:  59;

$$

WIZ003>005-009-010-017-018-200700-
NORTH CENTRAL WISCONSIN

CITY           SKY/WX    TMP DP  RH WIND       PRES   REMARKS
WOODRUFF       CLOUDY    49  38  66 S12       30.05S
6HR MIN TEMP:  44; 6HR MAX TEMP:  49; 6HR PCP:  0.01;

RHINELANDER    CLOUDY    47  36  65 S7        30.08F
6HR MIN TEMP:  45; 6HR MAX TEMP:  49; 6HR PCP:  0.05;

EAGLE RIVER    CLOUDY    46  35  64 S7        30.06S
6HR MIN TEMP:  44; 6HR MAX TEMP:  47; 6HR PCP:  0.01;

LAND O LAKES   CLOUDY    47  36  66 S6        30.06F
6HR MIN TEMP:  45; 6HR MAX TEMP:  47;

PHILLIPS       LGT RAIN  49  41  75 S8        30.04S
6HR MIN TEMP:  47; 6HR MAX TEMP:  51; 6HR PCP:  0.02;

TOMAHAWK       DRIZZLE   47  38  71 CALM      30.06F
6HR MIN TEMP:  44; 6HR MAX TEMP:  48; 6HR PCP:  0.06;

MEDFORD        CLOUDY    52  40  61 SE8       30.05F
6HR MIN TEMP:  52; 6HR MAX TEMP:  57;

MERRILL        CLOUDY    50  39  66 CALM      30.08S
6HR MIN TEMP:  50; 6HR MAX TEMP:  56;

$$

WIZ029-030-035-036-043>047-200700-
CENTRAL WISCONSIN

CITY           SKY/WX    TMP DP  RH WIND       PRES   REMARKS
WAUSAU         CLOUDY    55  36  48 S12       30.07F
6HR MIN TEMP:  53; 6HR MAX TEMP:  60; 6HR PCP: TRACE;

MOSINEE        MOCLDY    54  36  50 SE10      30.10S
MARSHFIELD     CLOUDY    55  39  54 S9        30.07S
6HR MIN TEMP:  55; 6HR MAX TEMP:  62; 6HR PCP: TRACE;

STEVENS POINT  CLOUDY    53  36  53 S9        30.10F
6HR MIN TEMP:  53; 6HR MAX TEMP:  60;

WAUPACA        MOCLDY    54  39  58 S7        30.13F
WAUTOMA        CLOUDY    54  39  56 S10       30.13F
6HR MIN TEMP:  53; 6HR MAX TEMP:  62;

WISC RAPIDS    CLOUDY    60  34  37 S10       30.10F
6HR MIN TEMP:  59; 6HR MAX TEMP:  63;

CAMP DOUGLAS   CLOUDY    61  34  36 S10       30.09S
6HR MIN TEMP:  59; 6HR MAX TEMP:  66;

$$

WIZ011>013-019>022-031-037>040-048>050-200700-
NORTHEAST WISCONSIN

CITY           SKY/WX    TMP DP  RH WIND       PRES   REMARKS
ANTIGO         CLOUDY    45  37  75 S9        30.10F
6HR MIN TEMP:  44; 6HR MAX TEMP:  50;

STURGEON BAY   CLOUDY    46  30  53 S17G25    30.17F
6HR MIN TEMP:  39; 6HR MAX TEMP:  46;

GREEN BAY      CLOUDY    51  38  60 S16       30.14F
6HR MIN TEMP:  46; 6HR MAX TEMP:  51;

MANITOWOC      MOCLDY    45  35  68 S16       30.19F
6HR MIN TEMP:  42; 6HR MAX TEMP:  45;

APPLETON       CLOUDY    52  34  50 S14G22    30.14F
CLINTONVILLE   FAIR      50  37  62 S8        30.12F
OSHKOSH        CLOUDY    51  37  58 S12       30.14F
6HR MIN TEMP:  48; 6HR MAX TEMP:  56;

$$

WIZ032>034-041-042-053>061-200700-
SOUTHWEST WISCONSIN

CITY           SKY/WX    TMP DP  RH WIND       PRES   REMARKS
LA CROSSE      CLOUDY    62  39  42 S15       30.05F
6HR MIN TEMP:  62; 6HR MAX TEMP:  68;

SPARTA         FAIR      64  32  31 S16G23    30.07F
6HR MIN TEMP:  62; 6HR MAX TEMP:  67;

VIROQUA        CLOUDY    60  35  39 S10       30.10S
6HR MIN TEMP:  59; 6HR MAX TEMP:  65;

BOSCOBEL       MOCLDY    63  34  33 S9G21     30.12S
6HR MIN TEMP:  63; 6HR MAX TEMP:  69;

PRAIRIE DU CHI MOCLDY    64  34  32 SE5       30.10F
6HR MIN TEMP:  61; 6HR MAX TEMP:  70;

PLATTEVILLE    CLOUDY    56  37  48 SE9       30.16S
6HR MIN TEMP:  56; 6HR MAX TEMP:  64;

$$

WIZ056-057-062-063-064-067-068-200700-
SOUTH CENTRAL WISCONSIN

CITY           SKY/WX    TMP DP  RH WIND       PRES   REMARKS
BARABOO/DELLS  FAIR      56  34  42 S8        30.13F
6HR MIN TEMP:  56; 6HR MAX TEMP:  62;

LONE ROCK      FAIR      62  34  35 S12       30.13F
6HR MIN TEMP:  54; 6HR MAX TEMP:  66;

WATERTOWN      FAIR      49  37  63 SE8       30.19S
6HR MIN TEMP:  49; 6HR MAX TEMP:  59;

MADISON        FAIR      53  39  59 S7        30.17S
6HR MIN TEMP:  53; 6HR MAX TEMP:  65;

MIDDLETON      MOCLDY    57  34  41 S10       30.17S
6HR MIN TEMP:  55; 6HR MAX TEMP:  65;

MONROE         FAIR      54  37  51 S15       30.17F
6HR MIN TEMP:  53; 6HR MAX TEMP:  64;

JANESVILLE     FAIR      48  36  61 SE8       30.19S
$$

WIZ051-052-058>065-066-070>072-200700-
SOUTHEAST WISCONSIN

CITY           SKY/WX    TMP DP  RH WIND       PRES   REMARKS
MILWAUKEE      FAIR      49  35  58 S10       30.23F
6HR MIN TEMP:  44; 6HR MAX TEMP:  50;

WAUKESHA       FAIR      46  34  61 S10       30.22F
MILWAUKEE/TIMM FAIR      46  34  61 S9        30.22F
RACINE         FAIR      49  34  56 S16G24    30.24F
6HR MIN TEMP:  44; 6HR MAX TEMP:  50;

BURLINGTON     FAIR      36  33  90 S3        30.22S
6HR MIN TEMP:  36; 6HR MAX TEMP:  54;

KENOSHA        FAIR      51  35  54 S14       30.22F
6HR MIN TEMP:  41; 6HR MAX TEMP:  51;

FOND DU LAC    FAIR      52  36  54 S16       30.16F
6HR MIN TEMP:  50; 6HR MAX TEMP:  56;

SHEBOYGAN      FAIR      41  34  76 S8        30.20F
6HR MIN TEMP:  38; 6HR MAX TEMP:  46;

WEST BEND      FAIR      45  32  61 S6        30.20F
JUNEAU         FAIR      49  33  53 SE10      30.19F
6HR MIN TEMP:  48; 6HR MAX TEMP:  57;

$$

LSZ147-162-200700-
LAKE SUPERIOR

STATION/POSITION TIME  TEMP    WIND        PRES    WAVE
                       AIR SEA DIR/SP/G            HT/PER
                 (UTC) (F)     (DEG/KT/KT) (MB)    (FT/S)
DEVILS ISLAND    0600   34      CALM  / 78 1017.2S
PORT WING        0500   30     210/  2/  3 1016.6F
SAXON HARBOR     0540           CALM  /  2 1016.3F
$$

LMZ867-665-643>646-200700-
LAKE MICHIGAN

STATION/POSITION TIME  TEMP    WIND        PRES    WAVE
                       AIR SEA DIR/SP/G            HT/PER
                 (UTC) (F)     (DEG/KT/KT) (MB)    (FT/S)
NORTHPORT PIER   0500   37     140/ 10/ 11 1022.7F
SISTER BAY       0509   41     160/ 12/ 16   N/A
KEWAUNEE LAKESHO 0500   40     170/ 10/ 11 1023.0F
SHEBOYGAN LAKESH 0600   42     170/ 15/ 16 1023.4F
PORT WASHINGTON  0500   40      CALM  /  2 1024.4S
MILWAUKEE LAKESH 0500   42     170/  2/  3   N/A
KENOSHA   LAKESH 0600   44     170/ 14/ 17   N/A
$$

TC  - TEMPERATURE IN CELSIUS
VSB - VISIBILITY IN STATUTE MILES
WCI - WIND CHILL INDEX
HX  - HEAT INDEX




USA.gov is the U.S. government's official web portal to all federal, state and local government web resources and services.